EW6511 Weather Reports


Display with metric or nautical units.
time (UTC)temp
F
wind
direction
speed
MPH
gust
MPH
rain 1hr
in
rain 24hr
in
rain mn
in
humidity
%
barometer
mb
20260905025230 66 259 3.0 6.0 0.00 0.00 0.00 53 1023.5
20260905023231 67 231 1.0 4.0 0.00 0.00 0.00 52 1023.2
20260905022230 67 190 1.0 2.0 0.00 0.00 0.00 50 1023.0
20260905021230 67 190 0.0 2.0 0.00 0.00 0.00 50 1023.0
20260905020232 67 190 1.0 3.0 0.00 0.00 0.00 50 1022.9
20260905015225 69 191 0.0 0.0 0.00 0.00 0.00 47 1022.9
20260905014224 69 191 0.0 1.0 0.00 0.00 0.00 47 1023.0
20260905013226 69 190 2.0 4.0 0.00 0.00 0.00 46 1023.0
20260905011225 71 258 3.0 6.0 0.00 0.00 0.00 44 1023.2
20260905005224 71 245 4.0 8.0 0.00 0.00 0.00 45 1023.2
20260905004224 71 234 3.0 6.0 0.00 0.00 0.00 46 1023.1
20260905003225 71 240 3.0 7.0 0.00 0.00 0.00 45 1023.1
20260905002219 71 238 2.0 5.0 0.00 0.00 0.00 45 1023.1
20260905001220 71 252 3.0 4.0 0.00 0.00 0.00 45 1023.0
20260905000219 71 234 2.0 6.0 0.00 0.00 0.00 45 1022.9
20260904235219 71 223 2.0 4.0 0.00 0.00 0.00 46 1023.0
20260904234220 71 207 2.0 4.0 0.00 0.00 0.00 46 1023.0
20260904232219 71 207 2.0 4.0 0.00 0.00 0.00 46 1022.9
20260904231219 71 206 3.0 7.0 0.00 0.00 0.00 46 1022.9
20260904224217 74 229 3.0 7.0 0.00 0.00 0.00 41 1022.7
20260904223216 74 205 4.0 6.0 0.00 0.00 0.00 41 1022.7
20260904221215 74 227 4.0 7.0 0.00 0.00 0.00 41 1022.7
20260904220216 74 183 3.0 6.0 0.00 0.00 0.00 42 1022.7
20260904215217 74 198 2.0 4.0 0.00 0.00 0.00 43 1022.7
20260904214216 74 216 2.0 4.0 0.00 0.00 0.00 42 1022.8
20260904213215 74 226 3.0 5.0 0.00 0.00 0.00 43 1022.7
20260904212214 74 202 2.0 5.0 0.00 0.00 0.00 43 1022.6
20260904205213 75 250 2.0 3.0 0.00 0.00 0.00 41 1022.6
20260904204211 76 250 2.0 4.0 0.00 0.00 0.00 41 1022.7
20260904203210 76 250 2.0 4.0 0.00 0.00 0.00 40 1022.7
20260904202209 77 253 3.0 4.0 0.00 0.00 0.00 39 1022.7
20260904200203 77 248 3.0 8.0 0.00 0.00 0.00 38 1022.4
20260904195204 77 239 4.0 8.0 0.00 0.00 0.00 38 1022.3
20260904194205 77 200 4.0 10.0 0.00 0.00 0.00 38 1022.3
20260904193203 77 268 3.0 6.0 0.00 0.00 0.00 38 1022.1
20260904192203 78 256 3.0 7.0 0.00 0.00 0.00 37 1021.9
20260904191202 78 216 4.0 9.0 0.00 0.00 0.00 37 1021.7
20260904190203 78 225 4.0 7.0 0.00 0.00 0.00 36 1021.6
20260904185203 79 227 3.0 6.0 0.00 0.00 0.00 36 1021.5
20260904184201 79 232 4.0 8.0 0.00 0.00 0.00 35 1021.4
20260904183202 80 238 4.0 9.0 0.00 0.00 0.00 34 1021.2
20260904182203 80 226 3.0 8.0 0.00 0.00 0.00 34 1021.2
20260904181204 80 264 4.0 7.0 0.00 0.00 0.00 33 1021.0
20260904180203 81 255 3.0 6.0 0.00 0.00 0.00 32 1020.8
20260904175203 82 219 4.0 8.0 0.00 0.00 0.00 31 1020.8
20260904174201 82 275 6.0 8.0 0.00 0.00 0.00 31 1020.9
20260904173159 83 259 8.0 12.0 0.00 0.00 0.00 29 1020.7
20260904171158 84 261 7.0 12.0 0.00 0.00 0.00 29 1020.4
20260904170200 84 250 9.0 14.0 0.00 0.00 0.00 28 1020.4
20260904165158 85 260 9.0 14.0 0.00 0.00 0.00 27 1020.3
20260904164157 85 265 8.0 15.0 0.00 0.00 0.00 29 1020.3
20260904163159 85 258 7.0 12.0 0.00 0.00 0.00 30 1020.3
20260904162157 85 236 7.0 11.0 0.00 0.00 0.00 30 1020.3
20260904161155 85 202 7.0 12.0 0.00 0.00 0.00 29 1020.4
20260904160156 85 261 9.0 16.0 0.00 0.00 0.00 30 1020.4
20260904155155 86 223 7.0 12.0 0.00 0.00 0.00 29 1020.5
20260904154156 86 257 7.0 12.0 0.00 0.00 0.00 30 1020.5
20260904153156 86 198 8.0 12.0 0.00 0.00 0.00 30 1020.7
20260904152155 86 221 7.0 15.0 0.00 0.00 0.00 29 1020.8
20260904151158 86 221 5.0 14.0 0.00 0.00 0.00 29 1020.8
20260904150151 86 215 8.0 12.0 0.00 0.00 0.00 30 1020.9
20260904145151 86 288 8.0 13.0 0.00 0.00 0.00 30 1020.9
20260904144150 86 287 9.0 15.0 0.00 0.00 0.00 30 1021.1
20260904143151 86 261 9.0 15.0 0.00 0.00 0.00 30 1021.1
20260904142151 85 294 9.0 13.0 0.00 0.00 0.00 32 1021.2
20260904140149 85 287 10.0 17.0 0.00 0.00 0.00 30 1021.3
20260904135151 85 248 8.0 14.0 0.00 0.00 0.00 31 1021.4
20260904133144 84 246 7.0 15.0 0.00 0.00 0.00 32 1021.5
20260904132143 84 271 8.0 14.0 0.00 0.00 0.00 34 1021.6
20260904131143 84 281 8.0 12.0 0.00 0.00 0.00 33 1021.7
20260904130145 83 258 9.0 14.0 0.00 0.00 0.00 33 1021.8
20260904124143 82 304 6.0 11.0 0.00 0.00 0.00 35 1022.1
20260904123143 82 301 6.0 12.0 0.00 0.00 0.00 37 1022.1
20260904121143 81 232 4.0 10.0 0.00 0.00 0.00 35 1022.5
20260904120141 80 212 5.0 10.0 0.00 0.00 0.00 35 1022.6
20260904114142 79 304 5.0 11.0 0.00 0.00 0.00 37 1022.7
20260904113141 79 284 5.0 9.0 0.00 0.00 0.00 36 1022.7
20260904112141 78 309 3.0 7.0 0.00 0.00 0.00 38 1022.8
20260904111141 78 294 4.0 8.0 0.00 0.00 0.00 41 1022.9
20260904110141 77 184 4.0 8.0 0.00 0.00 0.00 40 1023.0
20260904105140 76 289 4.0 10.0 0.00 0.00 0.00 39 1023.1
20260904103139 75 280 4.0 9.0 0.00 0.00 0.00 42 1023.4
20260904102140 74 284 3.0 8.0 0.00 0.00 0.00 45 1023.5
20260904101138 74 261 4.0 8.0 0.00 0.00 0.00 45 1023.7
20260904100138 73 275 5.0 8.0 0.00 0.00 0.00 43 1023.7
20260904095135 73 265 5.0 8.0 0.00 0.00 0.00 43 1024.0
20260904094136 73 289 5.0 9.0 0.00 0.00 0.00 41 1024.1
20260904093136 72 279 3.0 6.0 0.00 0.00 0.00 42 1024.1
20260904091133 71 265 3.0 6.0 0.00 0.00 0.00 45 1024.3
20260904090134 72 257 2.0 4.0 0.00 0.00 0.00 45 1024.2
20260904085134 71 329 2.0 4.0 0.00 0.00 0.00 46 1024.3
20260904084134 70 329 2.0 4.0 0.00 0.00 0.00 46 1024.1
20260904083135 69 324 3.0 5.0 0.00 0.00 0.00 46 1024.2
20260904082134 69 325 3.0 5.0 0.00 0.00 0.00 48 1024.3
20260904081133 69 318 2.0 4.0 0.00 0.00 0.00 49 1024.3
20260904075134 68 321 0.0 3.0 0.00 0.00 0.00 52 1024.1
20260904074133 67 321 0.0 2.0 0.00 0.00 0.00 50 1024.2
20260904073133 67 321 1.0 2.0 0.00 0.00 0.00 59 1024.4
20260904072133 66 321 1.0 3.0 0.00 0.00 0.00 59 1024.5
20260904071132 65 321 0.0 0.0 0.00 0.00 0.00 59 1024.4
20260904065132 63 128 0.0 0.0 0.00 0.00 0.00 59 1024.4
20260904064130 63 128 0.0 0.0 0.00 0.00 0.00 58 1024.4
20260904063129 63 128 0.0 1.0 0.00 0.00 0.00 60 1024.4
20260904062130 62 132 0.0 0.0 0.00 0.00 0.00 58 1024.4
20260904061128 62 132 0.0 0.0 0.00 0.00 0.00 59 1024.3
20260904060137 59 132 0.0 0.0 0.00 0.00 0.00 61 1024.5
20260904054123 58 132 0.0 0.0 0.00 0.00 0.00 62 1024.5
20260904053122 56 132 0.0 0.0 0.00 0.00 0.00 64 1024.5
20260904052122 56 132 0.0 0.0 0.00 0.00 0.00 63 1024.6
20260904051125 56 132 0.0 0.0 0.00 0.00 0.00 64 1024.6
20260904050124 56 132 0.0 0.0 0.00 0.00 0.00 63 1024.6
20260904045123 56 132 0.0 0.0 0.00 0.00 0.00 63 1024.6
20260904044123 56 132 0.0 0.0 0.00 0.00 0.00 64 1024.7
20260904042124 57 133 0.0 0.0 0.00 0.00 0.00 63 1024.8
20260904041117 57 133 0.0 0.0 0.00 0.00 0.00 62 1024.9
20260904040116 57 133 0.0 0.0 0.00 0.00 0.00 62 1024.8
20260904035118 57 133 0.0 0.0 0.00 0.00 0.00 62 1025.0
20260904034116 58 133 0.0 0.0 0.00 0.00 0.00 61 1025.0
20260904033116 58 133 0.0 0.0 0.00 0.00 0.00 61 1025.0
20260904032116 58 133 0.0 0.0 0.00 0.00 0.00 61 1024.8
20260904031116 58 133 0.0 0.0 0.00 0.00 0.00 62 1024.9
20260904030118 58 133 0.0 0.0 0.00 0.00 0.00 61 1024.8